Location: ???????
(55.3754°N, 39.3545°E)
Time: 08:56:24
(UTC+00:00)

Cosmos 1025 Rocket - Pass Details

Date: 14 April 2026
Orbit: 586 x 609 km, 82.5° (Epoch: 10 May)

Event Time Altitude Azimuth Distance (km) Brightness Sun altitude
Rises 17:59:43 0° 351° (N) 2,831 7.2 -12.5°
Reaches altitude 10° 18:02:00 10° 357° (N) 1,926 6.2 -12.8°
Maximum altitude 18:06:07 47° 72° (ENE) 783 3.3 -13.2°
Enters shadow 18:08:36 22° 137° (SE) 1,316 4.1 -13.5°
